PST,Max TemperatureF,Mean TemperatureF,Min TemperatureF,Max Dew PointF,MeanDew PointF,Min DewpointF,Max Humidity, Mean Humidity, Min Humidity, Max Sea Level PressureIn, Mean Sea Level PressureIn, Min Sea Level PressureIn, Max VisibilityMiles, Mean VisibilityMiles, Min VisibilityMiles, Max Wind SpeedMPH, Mean Wind SpeedMPH, Max Gust SpeedMPH,PrecipitationIn, CloudCover, Events, WindDirDegrees
2011-12-1,64,58,52,27,19,14,37,23,16,30.27,30.18,30.08,10,10,10,25,19,43,0.00,0,,355
2011-12-2,73,64,55,18,16,9,23,16,11,30.08,30.02,29.96,10,10,10,22,16,34,0.00,0,,349
2011-12-3,63,56,50,17,12,9,23,18,12,30.26,30.18,30.09,10,10,10,21,15,34,0.00,0,,357
2011-12-4,60,47,34,29,24,17,68,42,23,30.31,30.23,30.15,10,10,10,15,5,30,0.00,0,,352
2011-12-5,62,48,34,28,21,16,73,36,18,30.32,30.25,30.16,10,10,10,22,12,33,0.00,0,,5
2011-12-6,57,42,28,30,27,25,85,62,28,30.44,30.37,30.34,10,10,10,5,0,,0.00,0,,300
2011-12-7,57,42,28,33,30,26,92,64,36,30.35,30.24,30.17,10,9,7,8,1,,0.00,0,,157
2011-12-8,59,44,30,34,32,27,92,71,38,30.20,30.16,30.12,10,9,7,5,0,,0.00,0,,147
2011-12-9,61,44,28,37,32,26,96,72,38,30.27,30.21,30.18,10,9,7,4,1,,0.00,0,,305
2011-12-10,59,44,28,38,32,28,100,77,41,30.20,30.13,30.03,10,9,8,6,1,,0.00,0,,52
2011-12-11,54,42,30,40,35,29,92,77,55,30.02,29.93,29.86,10,9,5,9,2,,0.00,1,,201
2011-12-12,55,46,37,39,36,32,85,69,40,29.89,29.82,29.77,10,9,5,9,3,16,0.00,5,,351
2011-12-13,57,42,28,38,31,26,92,74,34,30.14,30.02,29.90,10,10,10,6,1,,0.00,0,,220
2011-12-14,55,41,27,40,33,26,96,72,43,30.33,30.26,30.18,10,10,9,6,1,,0.00,1,,192
2011-12-15,54,48,41,45,41,32,100,81,45,30.31,30.24,30.20,10,7,2,16,5,25,0.14,5,Rain,360
2011-12-16,64,52,36,37,30,28,93,45,26,30.28,30.20,30.12,10,10,4,20,12,30,0.00,0,,4
2011-12-17,55,42,30,43,34,28,100,91,59,30.23,30.18,30.10,6,3,1,5,1,,0.00,0,,167
2011-12-18,54,43,32,43,39,32,100,90,62,30.24,30.17,30.11,10,3,0,7,3,,0.00,2,Fog,318
2011-12-19,64,48,32,37,31,22,100,67,23,30.11,30.08,30.02,10,7,2,21,3,31,0.00,0,,356
2011-12-20,53,43,32,40,35,27,100,86,52,30.15,30.10,30.06,10,4,0,7,2,,0.00,1,Fog,84
2011-12-21,66,46,26,41,27,5,100,76,12,30.17,30.12,30.05,10,4,0,28,3,38,0.00,1,Fog,22
2011-12-22,61,44,28,19,9,4,67,24,11,30.49,30.35,30.20,10,9,1,20,13,34,0.00,0,,358
2011-12-23,55,40,24,24,21,18,81,58,24,30.61,30.54,30.49,10,10,10,5,1,,0.00,0,,323
2011-12-24,57,41,25,29,24,21,85,66,30,30.54,30.48,30.41,10,10,8,6,1,,0.00,0,,266
2011-12-25,55,41,27,33,28,23,92,74,42,30.48,30.40,30.32,10,6,4,4,0,,0.00,0,,73
2011-12-26,55,40,25,39,30,24,100,76,39,30.37,30.32,30.29,10,8,5,6,1,,0.00,0,,123
2011-12-27,61,44,28,39,34,27,96,77,39,30.39,30.34,30.29,10,9,7,6,1,,0.00,0,,213
2011-12-28,60,47,34,38,37,33,96,69,44,30.42,30.35,30.30,10,8,7,5,1,,0.00,0,,16
2011-12-29,55,46,37,43,39,34,93,78,57,30.29,30.21,30.11,7,6,4,6,1,,0.00,0,,351
2011-12-30,57,48,39,53,48,37,97,90,78,30.23,30.18,30.12,10,9,3,16,5,21,0.00,3,,212
2011-12-31,62,48,34,38,30,23,89,59,22,30.26,30.22,30.19,10,10,7,9,4,16,0.00,0,,1